星链-32957 (STARLINK-32957)

导读

STARLINK-32957是美国太空探索技术公司(SpaceX)星链(Starlink)互联网星座项目中的一颗低轨通信卫星,于2025年2月27日由美国发射入轨。该卫星运行于近地轨道,属于星链v2.0 mini平台,搭载相控阵天线与激光通信技术,旨在为全球提供高速低延迟宽带互联网服务,尤其助力偏远地区网络覆盖,进一步扩大星链星座的全球服务能力,设计寿命约5-7年,目前处于在轨运行状态。

基本信息
目录编号:
63124
目录名称:
STARLINK-32957
国际标识:
2025-039W
轨道中心:
EARTH
卫星名称:
星链-32957
卫星全名:
星链-32957 (STARLINK-32957)
卫星状态:
在轨 (已飞行554 天)
发射日期:
2025-02-27 UTC
国别 :
美国 (US)
星等 :
--
轨道信息
数据来源 国际轨道数据
星历时间: 2026-09-03T22:20:40+0800
23小时前
查看轨道信息
半长轴: 6861.161km
偏心率: 0.0000713
轨道倾角: 42.997°
近地点辐角 282.416°
升交点赤经 88.214°
平近点角 77.661°
近地点: 482.534km
远地点: 483.514km
周期: 94.266分钟
每日圈数: 15.275885
详细信息
固有亮度:
5
最大亮度:
2.5
卫星平台:
Starlink V1.0
覆盖范围:
全球
运营商:
太空探索技术公司
运营商所在国:
美国
制造商(研发单位):
太空探索技术公司
制造商所在国:
美国
使用方式:
暂无
卫星简介
Starlink 计划是 SpaceX 推出的全球卫星互联网项目,通过发射低轨道卫星,为全球尤其是偏远地区提供高速、低延迟的互联网服务。自 2019 年起,Starlink 已部署数千颗卫星,旨在缩小全球数字鸿沟,推动互联网普及。该项目还为军事、航空等行业提供通信支持,带来广泛经济效益。
2D轨道图
3D轨道图
轨道高度分析图
轨道倾角分析图
轨道综合分析图
查看轨道综合分析图
交会数据列表
事件ID 空间交会对象 最接近时刻(TCA) 交会距离 交会风险概率(CRP) 交会风险指数(CRI) 操作
CDM_260906-102205-683706-312421
2026-09-06T
10:22:43+0000
0.400 km
远距离
2.265209E-4 高风险 0.82
CDM_260906-115605-683706-312421
2026-09-06T
11:56:53+0000
1.428 km
极远距离
5.015673E-6 低风险 0.49
CDM_260906-084805-683706-312421
2026-09-06T
08:48:34+0000
1.525 km
极远距离
4.055759E-6 低风险 0.47
CDM_260905-041106-312406-430721
2026-09-05T
04:11:11+0000
2.301 km
极远距离
9.925009E-7 极低风险 0.35
CDM_260906-133105-683706-312421
2026-09-06T
13:31:02+0000
2.860 km
极远距离
9.729499E-7 极低风险 0.35
CDM_260906-071405-683706-312421
2026-09-06T
07:14:25+0000
2.883 km
极远距离
9.632251E-7 极低风险 0.35